N5TSS Weather Reports


time (UTC)temp
F
wind
direction
speed
knots
gust
knots
rain 1hr
in
rain 24hr
in
rain mn
in
humidity
%
barometer
mb
20260506084731 76 123 3.5 5.2 0.00 0.00 0.00 88 1009.8
20260506084227 76 171 4.3 5.2 0.00 0.00 0.00 88 1009.8
20260506083724 76 153 1.7 4.3 0.00 0.00 0.00 88 1009.5
20260506083222 76 163 3.5 5.2 0.00 0.00 0.00 88 1009.5
20260506082719 76 194 2.6 6.1 0.00 0.00 0.00 88 1009.5
20260506082214 76 124 0.9 2.6 0.00 0.00 0.00 88 1009.8
20260506081712 76 144 0.9 2.6 0.00 0.00 0.00 88 1009.5
20260506081210 76 174 0.9 2.6 0.00 0.00 0.00 88 1009.5
20260506080707 76 149 5.2 7.8 0.00 0.00 0.00 88 1009.5
20260506080204 76 144 1.7 4.3 0.00 0.00 0.00 87 1009.5
20260506073148 76 141 2.6 4.3 0.00 0.00 0.00 87 1009.8
20260506072644 76 164 3.5 5.2 0.00 0.00 0.00 86 1010.2
20260506072142 76 151 2.6 3.5 0.00 0.00 0.00 86 1010.2
20260506071640 76 147 4.3 8.7 0.00 0.00 0.00 86 1010.2
20260506071137 76 195 3.5 6.1 0.00 0.00 0.00 86 1010.2
20260506070634 77 145 3.5 3.5 0.00 0.00 0.00 86 1010.5
20260506070131 77 187 3.5 4.3 0.00 0.00 0.00 86 1010.5
20260506062109 77 129 2.6 3.5 0.00 0.00 0.00 85 1010.5
20260506061604 77 154 4.3 5.2 0.00 0.00 0.00 84 1010.5
20260506061102 77 152 4.3 7.8 0.00 0.00 0.00 84 1010.5
20260506060600 77 166 1.7 3.5 0.00 0.00 0.00 84 1010.5
20260506051029 77 182 2.6 4.3 0.00 0.00 0.00 83 1010.5
20260506050527 77 184 2.6 4.3 0.00 0.00 0.00 83 1010.5
20260506045017 77 165 2.6 3.5 0.00 0.00 0.00 83 1010.5
20260506044515 77 180 4.3 7.0 0.00 0.00 0.00 83 1010.5
20260506044012 77 162 1.7 3.5 0.00 0.00 0.00 83 1010.5
20260506043509 77 201 1.7 2.6 0.00 0.00 0.00 83 1010.5
20260506043007 77 167 3.5 4.3 0.00 0.00 0.00 83 1010.2
20260506042506 77 170 4.3 6.1 0.00 0.00 0.00 83 1010.2
20260506042003 77 161 3.5 4.3 0.00 0.00 0.00 83 1010.2
20260506041502 77 188 1.7 3.5 0.00 0.00 0.00 83 1010.2
20260506040959 77 147 4.3 7.0 0.00 0.00 0.00 83 1009.8
20260506040456 77 191 2.6 4.3 0.00 0.00 0.00 83 1009.8
20260506035952 77 146 1.7 2.6 0.00 0.00 0.00 83 1010.2
20260506035449 77 156 2.6 5.2 0.00 0.00 0.00 83 1010.2
20260506034945 77 142 2.6 5.2 0.00 0.00 0.00 83 1010.2
20260506034443 77 165 2.6 4.3 0.00 0.00 0.00 83 1009.8
20260506033940 77 161 3.5 5.2 0.00 0.00 0.00 83 1009.8
20260506033438 77 144 1.7 5.2 0.00 0.00 0.00 82 1009.8
20260506032934 77 167 2.6 4.3 0.00 0.00 0.00 82 1009.5
20260506032431 78 194 2.6 3.5 0.00 0.00 0.00 82 1009.8
20260506031928 78 174 2.6 4.3 0.00 0.00 0.00 82 1009.8
20260506031425 78 158 3.5 9.6 0.00 0.00 0.00 82 1009.8
20260506030923 78 155 3.5 4.3 0.00 0.00 0.00 82 1009.8
20260506030421 78 185 2.6 3.5 0.00 0.00 0.00 82 1009.8
20260506025917 78 162 1.7 2.6 0.00 0.00 0.00 82 1009.5
20260506025414 78 158 3.5 4.3 0.00 0.00 0.00 82 1009.5
20260506024911 78 146 1.7 1.7 0.00 0.00 0.00 82 1009.5
20260506024408 78 166 1.7 2.6 0.00 0.00 0.00 82 1009.8
20260506023904 78 191 0.9 1.7 0.00 0.00 0.00 81 1009.8
20260506023401 78 162 0.0 1.7 0.00 0.00 0.00 81 1009.5
20260506022857 78 153 1.7 2.6 0.00 0.00 0.00 80 1009.1
20260506022355 78 179 2.6 4.3 0.00 0.00 0.00 80 1009.1
20260506021853 78 156 1.7 2.6 0.00 0.00 0.00 80 1009.1
20260506021350 78 208 1.7 3.5 0.00 0.00 0.00 80 1009.1
20260506020846 78 174 0.9 2.6 0.00 0.00 0.00 80 1009.1
20260506020345 78 158 2.6 3.5 0.00 0.00 0.00 80 1008.8
20260506015841 78 131 0.9 1.7 0.00 0.00 0.00 80 1009.1
20260506015339 78 185 1.7 3.5 0.00 0.00 0.00 80 1008.8
20260506014835 78 142 1.7 2.6 0.00 0.00 0.00 80 1008.8
20260506014332 78 137 0.0 0.0 0.00 0.00 0.00 80 1008.8
20260506013829 79 191 1.7 4.3 0.00 0.00 0.00 80 1008.5
20260506013326 79 141 1.7 2.6 0.00 0.00 0.00 79 1008.5
20260506012823 79 130 0.0 3.5 0.00 0.00 0.00 79 1008.5
20260506012320 79 147 1.7 2.6 0.00 0.00 0.00 79 1008.5
20260506011817 79 174 2.6 7.0 0.00 0.00 0.00 79 1008.1
20260506011314 79 150 2.6 3.5 0.00 0.00 0.00 78 1008.1
20260506010811 79 144 3.5 5.2 0.00 0.00 0.00 78 1008.1
20260506010309 79 167 1.7 3.5 0.00 0.00 0.00 78 1008.1
20260506005806 80 193 3.5 5.2 0.00 0.00 0.00 77 1008.1
20260506005305 80 164 2.6 5.2 0.00 0.00 0.00 77 1008.1
20260506004758 80 169 3.5 5.2 0.00 0.00 0.00 77 1007.8
20260506004257 80 167 3.5 7.0 0.00 0.00 0.00 77 1007.8
20260506003752 80 206 3.5 6.1 0.00 0.00 0.00 77 1007.8
20260506003249 80 182 2.6 5.2 0.00 0.00 0.00 77 1007.8
20260506002745 80 168 1.7 2.6 0.00 0.00 0.00 77 1007.8
20260506002241 80 203 2.6 3.5 0.00 0.00 0.00 77 1007.8
20260506001737 80 143 1.7 3.5 0.00 0.00 0.00 77 1007.8
20260506001235 80 165 0.9 1.7 0.00 0.00 0.00 77 1007.8
20260506000731 81 169 2.6 3.5 0.00 0.00 0.00 76 1007.8
20260506000229 81 188 3.5 6.1 0.00 0.00 0.00 76 1007.8
20260505235726 81 171 2.6 7.8 0.00 0.00 0.00 76 1007.8
20260505235224 81 193 3.5 4.3 0.00 0.00 0.00 76 1007.8
20260505234720 81 144 3.5 5.2 0.00 0.00 0.00 76 1007.8
20260505234218 81 144 3.5 4.3 0.00 0.00 0.00 76 1007.8
20260505233714 81 135 2.6 4.3 0.00 0.00 0.00 75 1007.8
20260505233212 82 182 1.7 3.5 0.00 0.00 0.00 74 1007.8
20260505232709 82 165 2.6 4.3 0.00 0.00 0.00 74 1007.8
20260505232207 82 195 2.6 3.5 0.00 0.00 0.00 74 1007.4
20260505231703 82 132 1.7 6.1 0.00 0.00 0.00 73 1007.4
20260505231203 82 167 4.3 7.8 0.00 0.00 0.00 73 1007.8
20260505230700 82 147 5.2 9.6 0.00 0.00 0.00 73 1007.8
20260505230156 82 163 4.3 7.0 0.00 0.00 0.00 72 1007.8
20260505225653 82 164 5.2 9.6 0.00 0.00 0.00 73 1007.4
20260505225149 82 201 4.3 7.8 0.00 0.00 0.00 73 1007.8
20260505224645 83 176 4.3 6.1 0.00 0.00 0.00 73 1007.8
20260505224143 83 167 2.6 5.2 0.00 0.00 0.00 72 1007.8
20260505223641 83 95 0.9 2.6 0.00 0.00 0.00 72 1007.8
20260505223136 82 182 3.5 6.1 0.00 0.00 0.00 72 1007.8
20260505222632 82 151 5.2 8.7 0.00 0.00 0.00 72 1007.4
20260505222129 83 148 2.6 7.8 0.00 0.00 0.00 71 1007.4
20260505221626 83 175 3.5 6.1 0.00 0.00 0.00 71 1007.4
20260505221122 83 152 3.5 8.7 0.00 0.00 0.00 72 1007.4
20260505220620 83 173 4.3 8.7 0.00 0.00 0.00 72 1007.4
20260505220118 83 183 3.5 6.1 0.00 0.00 0.00 72 1007.4
20260505215615 84 202 6.1 7.8 0.00 0.00 0.00 71 1007.8
20260505215113 84 198 5.2 9.6 0.00 0.00 0.00 71 1007.4
20260505214611 84 137 4.3 7.8 0.00 0.00 0.00 71 1007.4
20260505214108 84 236 3.5 6.1 0.00 0.00 0.00 71 1007.4
20260505213605 84 153 2.6 7.8 0.00 0.00 0.00 71 1007.8
20260505213102 84 151 4.3 7.0 0.00 0.00 0.00 71 1008.1
20260505212558 84 159 2.6 5.2 0.00 0.00 0.00 71 1007.8
20260505212056 83 146 3.5 7.0 0.00 0.00 0.00 72 1008.1
20260505211552 84 161 2.6 9.6 0.00 0.00 0.00 71 1008.1
20260505211049 84 173 4.3 7.8 0.00 0.00 0.00 70 1008.1
20260505210546 84 168 5.2 8.7 0.00 0.00 0.00 71 1008.1
20260505210043 84 156 2.6 4.3 0.00 0.00 0.00 71 1008.5
20260505205541 85 180 4.3 11.3 0.00 0.00 0.00 70 1008.1
20260505205038 85 208 4.3 7.8 0.00 0.00 0.00 71 1008.5
20260505204535 84 185 4.3 6.1 0.00 0.00 0.00 71 1008.5
20260505204032 84 182 4.3 7.8 0.00 0.00 0.00 70 1008.5
20260505203529 84 167 3.5 10.4 0.00 0.00 0.00 71 1008.5
20260505203026 83 183 6.1 13.9 0.00 0.00 0.00 73 1008.8
20260505202522 83 198 4.3 7.8 0.00 0.00 0.00 72 1009.1
20260505202018 82 178 5.2 8.7 0.00 0.00 0.00 72 1008.8
20260505201516 83 177 3.5 7.0 0.00 0.00 0.00 72 1009.1
20260505201013 83 178 2.6 4.3 0.00 0.00 0.00 72 1009.1
20260505200511 82 179 4.3 8.7 0.00 0.00 0.00 73 1009.1
20260505200007 83 144 4.3 7.8 0.00 0.00 0.00 72 1009.1
20260505195503 83 165 5.2 8.7 0.00 0.00 0.00 72 1009.1
20260505195001 83 217 5.2 10.4 0.00 0.00 0.00 72 1009.1
20260505194458 83 210 5.2 7.8 0.00 0.00 0.00 72 1009.5
20260505193958 83 180 3.5 6.1 0.00 0.00 0.00 72 1009.1
20260505193456 83 180 1.7 5.2 0.00 0.00 0.00 73 1009.1
20260505192953 83 144 3.5 9.6 0.00 0.00 0.00 73 1009.5
20260505192452 82 145 3.5 5.2 0.00 0.00 0.00 74 1009.5
20260505191949 82 168 5.2 8.7 0.00 0.00 0.00 74 1009.5
20260505191447 82 163 7.0 11.3 0.00 0.00 0.00 75 1009.5
20260505190944 81 193 4.3 6.1 0.00 0.00 0.00 75 1009.5
20260505190439 82 176 5.2 9.6 0.00 0.00 0.00 74 1009.5
20260505185935 82 217 4.3 8.7 0.00 0.00 0.00 74 1009.5
20260505185432 82 198 3.5 5.2 0.00 0.00 0.00 74 1009.5
20260505184928 82 169 5.2 8.7 0.00 0.00 0.00 74 1009.5
20260505184425 81 169 3.5 7.0 0.00 0.00 0.00 76 1009.5
20260505183922 81 178 7.0 10.4 0.00 0.00 0.00 76 1009.8
20260505183419 81 180 5.2 9.6 0.00 0.00 0.00 76 1009.8
20260505182916 82 175 4.3 7.8 0.00 0.00 0.00 75 1009.8
20260505182412 82 171 1.7 3.5 0.00 0.00 0.00 75 1009.8
20260505181909 81 162 5.2 12.2 0.00 0.00 0.00 76 1009.8
20260505181406 81 156 4.3 7.0 0.00 0.00 0.00 76 1009.8
20260505180903 80 193 6.1 9.6 0.00 0.00 0.00 76 1010.2
20260505180400 80 167 3.5 7.8 0.00 0.00 0.00 78 1010.2
20260505175856 80 160 3.5 8.7 0.00 0.00 0.00 77 1010.2
20260505175352 80 224 4.3 8.7 0.00 0.00 0.00 77 1010.2
20260505174849 80 170 4.3 7.0 0.00 0.00 0.00 76 1010.2
20260505174347 81 149 4.3 8.7 0.00 0.00 0.00 76 1010.2
20260505173842 80 168 2.6 6.1 0.00 0.00 0.00 77 1010.2
20260505173339 80 188 4.3 7.8 0.00 0.00 0.00 78 1010.2
20260505172836 79 156 4.3 6.1 0.00 0.00 0.00 77 1010.2
20260505172334 80 153 3.5 9.6 0.00 0.00 0.00 77 1010.2
20260505171833 79 196 2.6 4.3 0.00 0.00 0.00 79 1010.5
20260505171331 79 196 2.6 4.3 0.00 0.00 0.00 79 1010.5
20260505170827 78 161 4.3 7.0 0.00 0.00 0.00 80 1010.5
20260505170324 78 201 4.3 6.1 0.00 0.00 0.00 80 1010.5
20260505165819 78 161 4.3 7.8 0.00 0.00 0.00 80 1010.5
20260505165315 78 175 5.2 9.6 0.00 0.00 0.00 80 1010.5
20260505164811 78 166 3.5 7.0 0.00 0.00 0.00 79 1010.5
20260505164308 79 174 4.3 8.7 0.00 0.00 0.00 79 1010.5
20260505163806 79 153 5.2 11.3 0.00 0.00 0.00 78 1010.5
20260505163305 79 175 2.6 6.1 0.00 0.00 0.00 79 1010.5
20260505162802 78 174 5.2 9.6 0.00 0.00 0.00 80 1010.5
20260505162258 77 179 5.2 7.8 0.00 0.00 0.00 80 1010.8
20260505161755 77 205 5.2 8.7 0.00 0.00 0.00 81 1010.8
20260505161253 77 149 3.5 5.2 0.00 0.00 0.00 81 1010.8
20260505160750 77 195 4.3 7.8 0.00 0.00 0.00 81 1010.8
20260505160248 77 159 3.5 5.2 0.00 0.00 0.00 82 1010.8
20260505153227 76 202 5.2 7.8 0.00 0.00 0.00 82 1010.5
20260505152724 76 191 3.5 6.1 0.00 0.00 0.00 82 1010.5
20260505152220 76 188 0.9 3.5 0.00 0.00 0.00 83 1010.5
20260505151715 76 178 3.5 7.8 0.00 0.00 0.00 82 1010.5
20260505151213 76 170 5.2 8.7 0.00 0.00 0.00 82 1010.5
20260505150709 76 167 1.7 5.2 0.00 0.00 0.00 83 1010.5
20260505150206 76 144 2.6 3.5 0.00 0.00 0.00 84 1010.5
20260505140639 74 168 4.3 6.1 0.00 0.00 0.00 86 1010.2
20260505140136 74 133 0.9 1.7 0.00 0.00 0.00 86 1010.5
20260505124549 72 142 2.6 4.3 0.00 0.00 0.00 88 1010.5
20260505124046 71 165 3.5 6.1 0.00 0.00 0.00 88 1010.2
20260505123542 71 191 2.6 4.3 0.00 0.00 0.00 88 1009.8
20260505123038 71 110 1.7 2.6 0.00 0.00 0.00 89 1009.8
20260505122536 71 190 3.5 3.5 0.00 0.00 0.00 89 1009.8
20260505122032 71 182 2.6 4.3 0.00 0.00 0.00 89 1009.8
20260505121529 71 182 5.2 8.7 0.00 0.00 0.00 89 1009.8
20260505121026 71 164 1.7 4.3 0.00 0.00 0.00 89 1010.2
20260505120522 71 127 0.9 2.6 0.00 0.00 0.00 89 1009.8
20260505120017 71 176 2.6 3.5 0.00 0.00 0.00 89 1009.8
20260505115512 71 208 2.6 6.1 0.00 0.00 0.00 89 1010.2
20260505115010 71 169 2.6 3.5 0.00 0.00 0.00 89 1010.2
20260505114507 71 213 2.6 4.3 0.00 0.00 0.00 89 1009.8
20260505114003 71 213 2.6 4.3 0.00 0.00 0.00 88 1009.8
20260505113500 71 172 1.7 4.3 0.00 0.00 0.00 88 1009.8
20260505112955 71 185 1.7 2.6 0.00 0.00 0.00 88 1009.8
20260505112453 71 183 4.3 5.2 0.00 0.00 0.00 88 1009.8
20260505111950 71 208 3.5 5.2 0.00 0.00 0.00 88 1009.8
20260505111443 71 184 3.5 6.1 0.00 0.00 0.00 88 1009.8
20260505110940 71 160 0.9 2.6 0.00 0.00 0.00 88 1009.8
20260505110437 71 188 5.2 8.7 0.00 0.00 0.00 88 1009.8
20260505101909 70 188 3.5 6.1 0.00 0.00 0.00 88 1009.5
20260505101408 70 154 3.5 9.6 0.00 0.00 0.00 88 1009.8
20260505100905 70 161 1.7 2.6 0.00 0.00 0.00 88 1009.8
20260505100401 70 180 2.6 5.2 0.00 0.00 0.00 88 1009.8
20260505095857 70 182 2.6 3.5 0.00 0.00 0.00 88 1010.2
20260505095355 70 193 2.6 6.1 0.00 0.00 0.00 88 1010.2
20260505094850 70 165 1.7 2.6 0.00 0.00 0.00 88 1010.2
20260505094348 70 156 1.7 1.7 0.00 0.00 0.00 88 1009.8
20260505093843 70 168 1.7 3.5 0.00 0.00 0.00 88 1009.8
20260505093341 70 165 1.7 3.5 0.00 0.00 0.00 87 1009.8
20260505092838 70 214 1.7 2.6 0.00 0.00 0.00 88 1010.2
20260505092336 70 176 2.6 5.2 0.00 0.00 0.00 87 1010.2
20260505091833 70 156 3.5 6.1 0.00 0.00 0.00 87 1010.2
20260505091331 70 162 2.6 3.5 0.00 0.00 0.00 87 1010.2
20260505090829 70 175 2.6 4.3 0.00 0.00 0.00 87 1010.2
20260505090327 70 146 3.5 5.2 0.00 0.00 0.00 87 1010.2
20260505085824 70 151 2.6 5.2 0.00 0.00 0.00 87 1010.2
20260505085322 70 165 5.2 9.6 0.00 0.00 0.00 86 1010.2